Time,TemperatureF,DewpointF,PressureIn,WindDirection,WindDirectionDegrees,WindSpeedMPH,WindSpeedGustMPH,Humidity,HourlyPrecipIn,Conditions,Clouds,dailyrainin,SoftwareType,DateUTC
2013-06-23 00:14:00,91.1,27.0,29.60,ENE,65,6.0,9.0,10,0.00,,,0.00,weatherlink.com 1.10,2013-06-23 07:14:00,
2013-06-23 00:29:00,91.2,27.0,29.60,NE,45,3.0,10.0,10,0.00,,,0.00,weatherlink.com 1.10,2013-06-23 07:29:00,
2013-06-23 00:44:00,91.3,27.0,29.60,ENE,70,4.0,10.0,10,0.00,,,0.00,weatherlink.com 1.10,2013-06-23 07:44:00,
2013-06-23 00:59:00,90.8,27.0,29.60,NE,44,4.0,9.0,10,0.00,,,0.00,weatherlink.com 1.10,2013-06-23 07:59:00,
2013-06-23 01:14:00,89.9,29.0,29.60,ENE,77,5.0,6.0,11,0.00,,,0.00,weatherlink.com 1.10,2013-06-23 08:14:00,
2013-06-23 01:29:00,89.9,26.0,29.60,ENE,58,6.0,8.0,10,0.00,,,0.00,weatherlink.com 1.10,2013-06-23 08:29:00,
2013-06-23 01:44:00,90.0,29.0,29.60,NE,56,3.0,9.0,11,0.00,,,0.00,weatherlink.com 1.10,2013-06-23 08:44:00,
2013-06-23 01:59:00,89.1,28.0,29.60,East,79,4.0,6.0,11,0.00,,,0.00,weatherlink.com 1.10,2013-06-23 08:59:00,
2013-06-23 02:14:00,89.1,28.0,29.60,ENE,67,2.0,9.0,11,0.00,,,0.00,weatherlink.com 1.10,2013-06-23 09:14:00,
2013-06-23 02:29:00,88.5,30.0,29.60,East,79,5.0,11.0,12,0.00,,,0.00,weatherlink.com 1.10,2013-06-23 09:29:00,
2013-06-23 02:44:00,88.6,30.0,29.60,East,86,10.0,12.0,12,0.00,,,0.00,weatherlink.com 1.10,2013-06-23 09:44:00,
2013-06-23 02:59:00,88.1,29.0,29.60,ENE,71,9.0,14.0,12,0.00,,,0.00,weatherlink.com 1.10,2013-06-23 09:59:00,
2013-06-23 03:14:00,87.7,31.0,29.60,East,83,5.0,11.0,13,0.00,,,0.00,weatherlink.com 1.10,2013-06-23 10:14:00,
2013-06-23 03:29:00,87.1,31.0,29.60,NE,49,8.0,11.0,13,0.00,,,0.00,weatherlink.com 1.10,2013-06-23 10:29:00,
2013-06-23 03:44:00,86.9,30.0,29.61,East,84,7.0,11.0,13,0.00,,,0.00,weatherlink.com 1.10,2013-06-23 10:44:00,
2013-06-23 03:59:00,86.4,32.0,29.61,ENE,70,3.0,7.0,14,0.00,,,0.00,weatherlink.com 1.10,2013-06-23 10:59:00,
2013-06-23 04:14:00,86.1,32.0,29.61,ESE,105,5.0,8.0,14,0.00,,,0.00,weatherlink.com 1.10,2013-06-23 11:14:00,
2013-06-23 04:29:00,86.1,33.0,29.61,East,84,6.0,9.0,15,0.00,,,0.00,weatherlink.com 1.10,2013-06-23 11:29:00,
2013-06-23 04:44:00,85.9,33.0,29.61,ESE,114,5.0,9.0,15,0.00,,,0.00,weatherlink.com 1.10,2013-06-23 11:44:00,
2013-06-23 04:59:00,86.3,35.0,29.61,East,100,9.0,13.0,16,0.00,,,0.00,weatherlink.com 1.10,2013-06-23 11:59:00,
2013-06-23 05:14:00,86.2,35.0,29.62,East,90,7.0,13.0,16,0.00,,,0.00,weatherlink.com 1.10,2013-06-23 12:14:00,
2013-06-23 05:29:00,85.5,37.0,29.62,ENE,70,6.0,9.0,18,0.00,,,0.00,weatherlink.com 1.10,2013-06-23 12:29:00,
2013-06-23 05:44:00,85.4,39.0,29.62,ENE,77,6.0,10.0,19,0.00,,,0.00,weatherlink.com 1.10,2013-06-23 12:44:00,
2013-06-23 05:59:00,85.6,40.0,29.62,East,98,7.0,13.0,20,0.00,,,0.00,weatherlink.com 1.10,2013-06-23 12:59:00,
2013-06-23 06:14:00,86.0,41.0,29.62,ENE,60,4.0,11.0,20,0.00,,,0.00,weatherlink.com 1.10,2013-06-23 13:14:00,
2013-06-23 06:30:00,86.7,41.0,29.62,East,92,11.0,11.0,20,0.00,,,0.00,weatherlink.com 1.10,2013-06-23 13:30:00,
2013-06-23 06:45:00,87.0,40.0,29.63,ESE,102,8.0,12.0,19,0.00,,,0.00,weatherlink.com 1.10,2013-06-23 13:45:00,
2013-06-23 07:00:00,87.3,40.0,29.64,East,90,11.0,15.0,19,0.00,,,0.00,weatherlink.com 1.10,2013-06-23 14:00:00,
2013-06-23 07:15:00,87.7,41.0,29.64,ENE,78,6.0,13.0,19,0.00,,,0.00,weatherlink.com 1.10,2013-06-23 14:15:00,
2013-06-23 07:30:00,88.2,41.0,29.64,East,82,9.0,12.0,19,0.00,,,0.00,weatherlink.com 1.10,2013-06-23 14:30:00,
2013-06-23 07:45:00,88.5,41.0,29.65,East,88,17.0,17.0,19,0.00,,,0.00,weatherlink.com 1.10,2013-06-23 14:45:00,
2013-06-23 08:00:00,88.7,41.0,29.65,East,86,10.0,15.0,19,0.00,,,0.00,weatherlink.com 1.10,2013-06-23 15:00:00,
2013-06-23 08:15:00,89.2,39.0,29.65,East,91,7.0,17.0,17,0.00,,,0.00,weatherlink.com 1.10,2013-06-23 15:15:00,
2013-06-23 08:30:00,90.0,36.0,29.65,ESE,115,10.0,19.0,15,0.00,,,0.00,weatherlink.com 1.10,2013-06-23 15:30:00,
2013-06-23 08:45:00,90.5,37.0,29.65,SE,128,8.0,15.0,15,0.00,,,0.00,weatherlink.com 1.10,2013-06-23 15:45:00,
2013-06-23 09:00:00,91.0,39.0,29.65,SE,128,9.0,13.0,16,0.00,,,0.00,weatherlink.com 1.10,2013-06-23 16:00:00,
2013-06-23 09:15:00,91.0,39.0,29.65,ESE,103,8.0,18.0,16,0.00,,,0.00,weatherlink.com 1.10,2013-06-23 16:15:00,
2013-06-23 09:30:00,91.7,38.0,29.64,ESE,111,11.0,18.0,15,0.00,,,0.00,weatherlink.com 1.10,2013-06-23 16:30:00,
2013-06-23 09:45:00,92.7,39.0,29.65,ESE,123,5.0,15.0,15,0.00,,,0.00,weatherlink.com 1.10,2013-06-23 16:45:00,
2013-06-23 10:00:00,93.6,36.0,29.65,SSE,162,9.0,15.0,13,0.00,,,0.00,weatherlink.com 1.10,2013-06-23 17:00:00,
2013-06-23 10:15:00,94.2,34.0,29.65,SSW,212,8.0,17.0,12,0.00,,,0.00,weatherlink.com 1.10,2013-06-23 17:15:00,
2013-06-23 10:30:00,95.5,33.0,29.64,SSE,164,10.0,16.0,11,0.00,,,0.00,weatherlink.com 1.10,2013-06-23 17:30:00,
2013-06-23 10:45:00,95.2,33.0,29.64,ENE,75,9.0,18.0,11,0.00,,,0.00,weatherlink.com 1.10,2013-06-23 17:45:00,
2013-06-23 11:00:00,95.6,33.0,29.64,SE,144,7.0,18.0,11,0.00,,,0.00,weatherlink.com 1.10,2013-06-23 18:00:00,
2013-06-23 11:15:00,96.9,32.0,29.64,ESE,113,11.0,21.0,10,0.00,,,0.00,weatherlink.com 1.10,2013-06-23 18:15:00,
2013-06-23 11:30:00,97.1,32.0,29.64,SE,131,7.0,16.0,10,0.00,,,0.00,weatherlink.com 1.10,2013-06-23 18:30:00,
2013-06-23 11:45:00,97.5,30.0,29.63,ESE,122,5.0,16.0,9,0.00,,,0.00,weatherlink.com 1.10,2013-06-23 18:45:00,
2013-06-23 12:00:00,97.4,32.0,29.62,ESE,119,8.0,15.0,10,0.00,,,0.00,weatherlink.com 1.10,2013-06-23 19:00:00,
2013-06-23 12:15:00,98.0,33.0,29.62,SW,222,12.0,14.0,10,0.00,,,0.00,weatherlink.com 1.10,2013-06-23 19:15:00,
2013-06-23 12:30:00,98.6,31.0,29.61,SE,138,11.0,16.0,9,0.00,,,0.00,weatherlink.com 1.10,2013-06-23 19:30:00,
2013-06-23 12:45:00,99.2,31.0,29.61,ESE,105,14.0,17.0,9,0.00,,,0.00,weatherlink.com 1.10,2013-06-23 19:45:00,
2013-06-23 13:00:00,99.7,31.0,29.60,SE,134,8.0,17.0,9,0.00,,,0.00,weatherlink.com 1.10,2013-06-23 20:00:00,
2013-06-23 13:15:00,100.8,29.0,29.59,SSE,161,8.0,19.0,8,0.00,,,0.00,weatherlink.com 1.10,2013-06-23 20:15:00,
2013-06-23 13:30:00,101.2,30.0,29.59,ESE,102,7.0,16.0,8,0.00,,,0.00,weatherlink.com 1.10,2013-06-23 20:30:00,
2013-06-23 13:45:00,101.8,30.0,29.58,SSE,155,10.0,12.0,8,0.00,,,0.00,weatherlink.com 1.10,2013-06-23 20:45:00,
2013-06-23 14:00:00,102.4,31.0,29.58,South,179,6.0,17.0,8,0.00,,,0.00,weatherlink.com 1.10,2013-06-23 21:00:00,
2013-06-23 14:15:00,102.2,30.0,29.57,South,187,8.0,15.0,8,0.00,,,0.00,weatherlink.com 1.10,2013-06-23 21:15:00,
2013-06-23 14:30:00,102.4,27.0,29.56,SSW,201,7.0,16.0,7,0.00,,,0.00,weatherlink.com 1.10,2013-06-23 21:30:00,
2013-06-23 14:46:00,102.8,28.0,29.56,SSE,157,10.0,17.0,7,0.00,,,0.00,weatherlink.com 1.10,2013-06-23 21:46:00,
2013-06-23 15:01:00,102.3,27.0,29.55,SE,127,11.0,22.0,7,0.00,,,0.00,weatherlink.com 1.10,2013-06-23 22:01:00,
2013-06-23 15:16:00,102.9,28.0,29.55,SE,133,4.0,20.0,7,0.00,,,0.00,weatherlink.com 1.10,2013-06-23 22:16:00,
2013-06-23 15:31:00,103.4,28.0,29.54,South,179,7.0,17.0,7,0.00,,,0.00,weatherlink.com 1.10,2013-06-23 22:31:00,
2013-06-23 15:46:00,102.9,28.0,29.54,SE,146,11.0,19.0,7,0.00,,,0.00,weatherlink.com 1.10,2013-06-23 22:46:00,
2013-06-23 16:01:00,103.2,28.0,29.54,SE,140,10.0,23.0,7,0.00,,,0.00,weatherlink.com 1.10,2013-06-23 23:01:00,
2013-06-23 16:16:00,103.0,28.0,29.53,SSW,207,14.0,20.0,7,0.00,,,0.00,weatherlink.com 1.10,2013-06-23 23:16:00,
2013-06-23 16:31:00,102.5,27.0,29.52,SSE,159,11.0,23.0,7,0.00,,,0.00,weatherlink.com 1.10,2013-06-23 23:31:00,
2013-06-23 16:46:00,102.4,24.0,29.52,ESE,112,9.0,20.0,6,0.00,,,0.00,weatherlink.com 1.10,2013-06-23 23:46:00,
2013-06-23 17:01:00,102.2,23.0,29.52,SSE,147,12.0,19.0,6,0.00,,,0.00,weatherlink.com 1.10,2013-06-24 00:01:00,
2013-06-23 17:16:00,102.1,19.0,29.52,SE,146,5.0,19.0,5,0.00,,,0.00,weatherlink.com 1.10,2013-06-24 00:16:00,
2013-06-23 17:31:00,102.7,14.0,29.51,SSE,152,10.0,20.0,4,0.00,,,0.00,weatherlink.com 1.10,2013-06-24 00:31:00,
2013-06-23 17:46:00,101.2,7.0,29.51,SSW,195,12.0,19.0,3,0.00,,,0.00,weatherlink.com 1.10,2013-06-24 00:46:00,
2013-06-23 18:01:00,100.2,6.0,29.51,SSW,202,8.0,18.0,3,0.00,,,0.00,weatherlink.com 1.10,2013-06-24 01:01:00,
2013-06-23 18:16:00,100.0,12.0,29.51,SSW,202,11.0,17.0,4,0.00,,,0.00,weatherlink.com 1.10,2013-06-24 01:16:00,
2013-06-23 18:31:00,100.6,18.0,29.51,South,176,12.0,16.0,5,0.00,,,0.00,weatherlink.com 1.10,2013-06-24 01:31:00,
2013-06-23 18:46:00,99.4,21.0,29.52,SSE,147,4.0,14.0,6,0.00,,,0.00,weatherlink.com 1.10,2013-06-24 01:46:00,
2013-06-23 19:01:00,98.6,21.0,29.51,South,169,5.0,13.0,6,0.00,,,0.00,weatherlink.com 1.10,2013-06-24 02:01:00,
2013-06-23 19:16:00,98.0,24.0,29.52,South,176,8.0,12.0,7,0.00,,,0.00,weatherlink.com 1.10,2013-06-24 02:16:00,
2013-06-23 19:31:00,97.5,24.0,29.52,SSE,159,6.0,13.0,7,0.00,,,0.00,weatherlink.com 1.10,2013-06-24 02:31:00,
2013-06-23 19:46:00,96.8,26.0,29.52,SSW,192,5.0,12.0,8,0.00,,,0.00,weatherlink.com 1.10,2013-06-24 02:46:00,
2013-06-23 20:01:00,96.3,26.0,29.52,SSE,155,5.0,10.0,8,0.00,,,0.00,weatherlink.com 1.10,2013-06-24 03:01:00,
2013-06-23 20:16:00,96.2,26.0,29.52,South,173,5.0,11.0,8,0.00,,,0.00,weatherlink.com 1.10,2013-06-24 03:16:00,
2013-06-23 20:31:00,96.1,26.0,29.52,SSE,160,3.0,11.0,8,0.00,,,0.00,weatherlink.com 1.10,2013-06-24 03:31:00,
2013-06-23 20:46:00,95.5,25.0,29.52,South,182,4.0,11.0,8,0.00,,,0.00,weatherlink.com 1.10,2013-06-24 03:46:00,
2013-06-23 21:01:00,95.2,25.0,29.52,SSE,157,4.0,7.0,8,0.00,,,0.00,weatherlink.com 1.10,2013-06-24 04:01:00,
2013-06-23 21:16:00,94.8,28.0,29.53,SSE,148,6.0,8.0,9,0.00,,,0.00,weatherlink.com 1.10,2013-06-24 04:16:00,
2013-06-23 21:31:00,94.3,27.0,29.53,SSE,149,4.0,6.0,9,0.00,,,0.00,weatherlink.com 1.10,2013-06-24 04:31:00,
2013-06-23 21:46:00,94.0,32.0,29.54,SE,136,4.0,6.0,11,0.00,,,0.00,weatherlink.com 1.10,2013-06-24 04:46:00,
2013-06-23 22:01:00,93.5,32.0,29.54,East,84,5.0,5.0,11,0.00,,,0.00,weatherlink.com 1.10,2013-06-24 05:01:00,
2013-06-23 22:16:00,92.7,33.0,29.54,ESE,102,2.0,2.0,12,0.00,,,0.00,weatherlink.com 1.10,2013-06-24 05:16:00,
2013-06-23 22:31:00,92.4,33.0,29.54,ESE,107,2.0,4.0,12,0.00,,,0.00,weatherlink.com 1.10,2013-06-24 05:31:00,
2013-06-23 22:46:00,91.8,32.0,29.54,East,92,0.0,1.0,12,0.00,,,0.00,weatherlink.com 1.10,2013-06-24 05:46:00,
2013-06-23 23:31:00,91.4,34.0,29.54,ESE,105,1.0,7.0,13,0.00,,,0.00,weatherlink.com 1.10,2013-06-24 06:31:00,